FW3072 Weather Reports


Display with metric or nautical units.
time (UTC)temp
F
wind
direction
speed
MPH
gust
MPH
rain 1hr
in
rain 24hr
in
rain mn
in
humidity
%
barometer
mb
20260504022223 53 260 6.0 15.0 0.00 0.00 0.00 57 1009.1
20260504021202 53 233 1.0 12.0 0.00 0.00 0.00 60 1009.2
20260504020202 53 231 2.0 14.0 0.00 0.00 0.00 60 1009.3
20260504015204 53 242 3.0 12.0 0.00 0.00 0.00 59 1009.3
20260504014225 53 215 3.0 9.0 0.00 0.00 0.00 59 1009.2
20260504013202 53 256 4.0 12.0 0.00 0.00 0.00 60 1009.2
20260504012203 53 266 5.0 18.0 0.00 0.00 0.00 59 1009.3
20260504011202 53 228 5.0 20.0 0.00 0.00 0.00 58 1009.3
20260504010202 53 219 4.0 16.0 0.00 0.00 0.00 58 1009.3
20260504005202 53 251 3.0 19.0 0.00 0.00 0.00 60 1009.2
20260504004202 53 278 5.0 16.0 0.00 0.00 0.00 60 1009.2
20260504003202 52 277 4.0 14.0 0.00 0.00 0.00 60 1009.2
20260504002202 52 257 4.0 12.0 0.00 0.00 0.00 62 1009.2
20260504000223 53 233 3.0 9.0 0.00 0.00 0.00 61 1009.3
20260503235202 53 261 2.0 9.0 0.00 0.00 0.00 61 1009.4
20260503234202 53 246 3.0 12.0 0.00 0.00 0.00 62 1009.4
20260503233202 53 255 3.0 10.0 0.00 0.00 0.00 62 1009.5
20260503232202 53 270 5.0 16.0 0.00 0.00 0.00 64 1009.5
20260503231202 53 286 4.0 11.0 0.00 0.00 0.00 66 1009.7
20260503230202 53 288 5.0 9.0 0.00 0.00 0.00 66 1009.8
20260503225224 53 284 5.0 15.0 0.00 0.00 0.00 65 1009.8
20260503224202 53 268 4.0 11.0 0.00 0.00 0.00 65 1009.8
20260503223204 53 288 6.0 12.0 0.00 0.00 0.00 63 1009.9
20260503222223 52 270 7.0 16.0 0.00 0.00 0.00 64 1009.8
20260503221202 52 264 6.0 14.0 0.00 0.00 0.00 66 1009.9
20260503220201 52 282 7.0 18.0 0.00 0.00 0.00 65 1009.8
20260503215202 52 260 8.0 16.0 0.00 0.00 0.00 65 1009.7
20260503214202 52 264 5.0 21.0 0.00 0.00 0.00 65 1009.6
20260503213202 52 270 4.0 12.0 0.00 0.00 0.00 65 1009.5
20260503211203 52 271 6.0 18.0 0.00 0.00 0.00 65 1009.4
20260503210202 51 258 4.0 15.0 0.00 0.00 0.00 65 1009.5
20260503205201 51 244 4.0 15.0 0.00 0.00 0.00 64 1009.7
20260503203203 52 219 4.0 13.0 0.00 0.00 0.00 63 1009.8
20260503202202 52 270 5.0 21.0 0.00 0.00 0.00 63 1009.9
20260503201203 53 237 4.0 15.0 0.00 0.00 0.00 62 1010.0
20260503200204 53 263 6.0 13.0 0.00 0.00 0.00 61 1010.2
20260503195205 54 245 5.0 19.0 0.00 0.00 0.00 61 1010.4
20260503194202 54 218 4.0 13.0 0.00 0.00 0.00 60 1010.4
20260503193223 54 256 6.0 16.0 0.00 0.00 0.00 60 1010.6
20260503192203 53 269 6.0 15.0 0.00 0.00 0.00 60 1010.9
20260503191202 53 241 6.0 17.0 0.00 0.00 0.00 59 1011.0
20260503190203 53 281 9.0 19.0 0.00 0.00 0.00 58 1011.1
20260503185203 54 253 6.0 23.0 0.00 0.00 0.00 56 1011.2
20260503184202 54 277 7.0 19.0 0.00 0.00 0.00 56 1011.3
20260503183202 54 254 8.0 18.0 0.00 0.00 0.00 55 1011.5
20260503182205 55 238 5.0 14.0 0.00 0.00 0.00 52 1011.6
20260503181202 54 252 5.0 12.0 0.00 0.00 0.00 55 1011.6
20260503180202 53 227 5.0 16.0 0.00 0.00 0.00 54 1011.8
20260503175202 53 219 4.0 12.0 0.00 0.00 0.00 59 1011.9
20260503174224 51 242 4.0 12.0 0.00 0.00 0.00 60 1012.2
20260503173202 51 255 3.0 11.0 0.00 0.00 0.00 61 1012.3
20260503172203 52 228 4.0 10.0 0.00 0.00 0.00 64 1012.6
20260503171225 52 227 4.0 12.0 0.00 0.00 0.00 62 1012.6
20260503170202 51 222 4.0 16.0 0.00 0.00 0.00 60 1012.7
20260503160203 51 238 4.0 8.0 0.00 0.00 0.00 58 1013.4
20260503150202 49 242 5.0 12.0 0.00 0.00 0.00 64 1013.8
20260503140204 47 269 6.0 16.0 0.00 0.00 0.00 75 1014.0
20260503131202 45 265 4.0 12.0 0.00 0.00 0.00 80 1014.2
20260503130223 44 211 3.0 9.0 0.00 0.00 0.00 81 1014.2
20260503120202 38 235 1.0 3.0 0.00 0.00 0.00 89 1014.3
20260503110225 32 242 0.0 0.0 0.00 0.00 0.00 89 1014.4
20260503100204 30 242 0.0 0.0 0.00 0.00 0.00 88 1014.3
20260503090202 30 242 0.0 0.0 0.00 0.00 0.00 87 1014.6
20260503081201 31 242 0.0 0.0 0.00 0.00 0.00 86 1014.7
20260503080204 31 242 0.0 0.0 0.00 0.00 0.00 86 1014.7
20260503072203 31 242 0.0 0.0 0.00 0.00 0.00 85 1014.6
20260503071225 31 242 0.0 0.0 0.00 0.00 0.00 84 1014.6
20260503070226 31 242 0.0 0.0 0.00 0.00 0.00 84 1014.5
20260503060204 33 242 0.0 0.0 0.00 0.00 0.00 83 1014.9
20260503054202 34 242 0.0 0.0 0.00 0.00 0.00 83 1014.9
20260503053202 34 242 0.0 0.0 0.00 0.00 0.00 82 1014.9
20260503052203 34 242 0.0 0.0 0.00 0.00 0.00 82 1015.0
20260503051204 35 242 0.0 0.0 0.00 0.00 0.00 81 1015.1
20260503050202 35 242 0.0 0.0 0.00 0.00 0.00 81 1015.2
20260503045203 36 242 0.0 0.0 0.00 0.00 0.00 80 1015.1
20260503044202 36 242 0.0 0.0 0.00 0.00 0.00 80 1015.2
20260503043223 37 242 0.0 0.0 0.00 0.00 0.00 79 1015.3
20260503042202 37 242 0.0 0.0 0.00 0.00 0.00 79 1015.3
20260503041202 38 242 0.0 0.0 0.00 0.00 0.00 78 1015.4
20260503040224 39 242 0.0 0.0 0.00 0.00 0.00 78 1015.4
20260503035202 39 242 0.0 0.0 0.00 0.00 0.00 78 1015.4
20260503034202 40 242 0.0 0.0 0.00 0.00 0.00 78 1015.4
20260503033223 40 242 0.0 0.0 0.00 0.00 0.00 78 1015.4
20260503032203 40 242 0.0 0.0 0.00 0.00 0.00 77 1015.4
20260503031202 40 242 0.0 0.0 0.00 0.00 0.00 76 1015.4
20260503030202 40 242 0.0 0.0 0.00 0.00 0.00 75 1015.5
20260503025203 41 242 0.0 0.0 0.00 0.00 0.00 75 1015.6
20260503024202 41 242 0.0 0.0 0.00 0.00 0.00 74 1015.6
20260503023204 41 242 0.0 0.0 0.00 0.00 0.00 73 1015.6